When you browse on this site, cookies collect data to enhance your experience and personalize the content and advertising you see.
Visit our Privacy Policy to learn more. By continuing to use the site, you agree to this use of cookies and data.
  • In Austria
  • List of Countries
  • For 7 days
  • Water Temperature
  • Satellite Maps
  • Weather Map
  • News
  • Weather Widgets
  • user-avatar
    Login

    Hourly Weather Nagano

    Today, 18 April, Thursday

    Time Temperature Precipitation Wind Pressure Humidity
    00:00 +9°C° 0 mm 0 mps 692 mmHg 74%
    01:00 +8°C° 0 mm 0 mps 691 mmHg 76%
    02:00 +8°C° 0 mm 0 mps 691 mmHg 78%
    03:00 +7°C° 0 mm 0 mps 690 mmHg 80%
    04:00 +7°C° 0 mm 0 mps 690 mmHg 80%
    05:00 +7°C° 0 mm 0 mps 691 mmHg 80%
    06:00 +7°C° 0 mm 0 mps 691 mmHg 80%
    07:00 +10°C° 0 mm 0 mps 692 mmHg 67%
    08:00 +13°C° 0 mm 0 mps 692 mmHg 54%
    09:00 +17°C° 0 mm 0 mps 693 mmHg 42%
    10:00 +18°C° 0 mm 0 mps 693 mmHg 38%
    11:00 +21°C° 0 mm 1 mps 693 mmHg 34%
    12:00 +22°C° 0 mm 1 mps 694 mmHg 30%
    13:00 +23°C° 0 mm 1 mps 693 mmHg 29%
    14:00 +23°C° 0 mm 1 mps 693 mmHg 29%
    15:00 +23°C° 0 mm 1 mps 692 mmHg 28%
    16:00 +21°C° 0 mm 1 mps 692 mmHg 33%
    17:00 +19°C° 0 mm 1 mps 692 mmHg 39%
    18:00 +18°C° 0 mm 1 mps 692 mmHg 44%
    19:00 +15°C° 0 mm 1 mps 692 mmHg 49%
    20:00 +14°C° 0 mm 1 mps 692 mmHg 54%
    21:00 +12°C° 0 mm 1 mps 692 mmHg 60%
    22:00 +12°C° 0 mm 1 mps 692 mmHg 62%
    23:00 +12°C° 0 mm 1 mps 692 mmHg 64%

    Tomorrow, 19 April, Friday

    Time Temperature Precipitation Wind Pressure Humidity
    00:00 +11°C° 0 mm 1 mps 692 mmHg 67%
    01:00 +11°C° 0 mm 1 mps 692 mmHg 67%
    02:00 +11°C° 0 mm 1 mps 692 mmHg 68%
    03:00 +11°C° 0 mm 1 mps 692 mmHg 69%
    04:00 +11°C° 0 mm 1 mps 692 mmHg 70%
    05:00 +11°C° 0 mm 1 mps 692 mmHg 70%
    06:00 +11°C° 0 mm 1 mps 692 mmHg 71%
    07:00 +13°C° 0 mm 1 mps 692 mmHg 66%
    08:00 +15°C° 0 mm 1 mps 693 mmHg 60%
    09:00 +18°C° 0 mm 1 mps 693 mmHg 55%
    10:00 +18°C° 0 mm 1 mps 693 mmHg 56%
    11:00 +16°C° 0 mm 2 mps 693 mmHg 56%
    12:00 +16°C° 0 mm 2 mps 693 mmHg 57%
    13:00 +16°C° 0 mm 2 mps 693 mmHg 56%
    14:00 +16°C° 0 mm 2 mps 693 mmHg 55%
    15:00 +16°C° 0 mm 2 mps 693 mmHg 55%
    16:00 +14°C° 0 mm 2 mps 692 mmHg 59%
    17:00 +13°C° 0 mm 2 mps 692 mmHg 63%
    18:00 +10°C° 0 mm 2 mps 692 mmHg 67%
    19:00 +9°C° 0 mm 2 mps 692 mmHg 69%
    20:00 +8°C° 0 mm 2 mps 693 mmHg 71%
    21:00 +7°C° 0 mm 2 mps 693 mmHg 73%
    22:00 +7°C° 0 mm 2 mps 693 mmHg 75%
    23:00 +6°C° 0 mm 2 mps 693 mmHg 76%

    Day after tomorrow, 20 April, Saturday

    Time Temperature Precipitation Wind Pressure Humidity
    00:00 +5°C° 0 mm 2 mps 693 mmHg 78%
    01:00 +5°C° 0 mm 1 mps 693 mmHg 77%
    02:00 +4°C° 0 mm 1 mps 693 mmHg 76%
    03:00 +4°C° 0 mm 1 mps 693 mmHg 74%
    04:00 +4°C° 0 mm 1 mps 693 mmHg 70%
    05:00 +4°C° 0 mm 1 mps 693 mmHg 66%
    06:00 +4°C° 0 mm 1 mps 694 mmHg 62%
    07:00 +7°C° 0 mm 1 mps 694 mmHg 49%
    08:00 +11°C° 0 mm 1 mps 695 mmHg 37%
    09:00 +14°C° 0 mm 1 mps 696 mmHg 24%
    10:00 +16°C° 0 mm 1 mps 696 mmHg 22%
    11:00 +18°C° 0 mm 1 mps 696 mmHg 20%
    12:00 +19°C° 0 mm 2 mps 696 mmHg 19%
    13:00 +19°C° 0 mm 2 mps 695 mmHg 20%
    14:00 +19°C° 0 mm 2 mps 695 mmHg 21%
    15:00 +19°C° 0 mm 2 mps 694 mmHg 22%
    16:00 +17°C° 0 mm 2 mps 694 mmHg 27%
    17:00 +16°C° 0 mm 2 mps 694 mmHg 32%
    18:00 +14°C° 0 mm 2 mps 694 mmHg 37%
    19:00 +12°C° 0 mm 2 mps 694 mmHg 39%
    20:00 +10°C° 0 mm 1 mps 694 mmHg 41%
    21:00 +9°C° 0 mm 1 mps 694 mmHg 42%
    22:00 +8°C° 0 mm 1 mps 694 mmHg 43%
    23:00 +8°C° 0 mm 1 mps 693 mmHg 43%

    21 April, Sunday

    Time Temperature Precipitation Wind Pressure Humidity
    00:00 +8°C° 0 mm 1 mps 693 mmHg 43%
    01:00 +7°C° 0 mm 1 mps 693 mmHg 45%
    02:00 +7°C° 0 mm 1 mps 693 mmHg 47%
    03:00 +7°C° 0 mm 1 mps 692 mmHg 48%
    04:00 +7°C° 0 mm 1 mps 692 mmHg 49%
    05:00 +7°C° 0 mm 1 mps 692 mmHg 49%
    06:00 +8°C° 0 mm 1 mps 693 mmHg 49%
    07:00 +10°C° 0 mm 1 mps 693 mmHg 42%
    08:00 +13°C° 0 mm 1 mps 693 mmHg 35%
    09:00 +16°C° 0 mm 1 mps 694 mmHg 28%
    10:00 +18°C° 0 mm 1 mps 694 mmHg 27%
    11:00 +19°C° 0 mm 1 mps 694 mmHg 27%
    12:00 +20°C° 0 mm 1 mps 694 mmHg 26%
    13:00 +21°C° 0 mm 1 mps 694 mmHg 27%
    14:00 +22°C° 0 mm 1 mps 693 mmHg 27%
    15:00 +22°C° 0 mm 1 mps 693 mmHg 28%
    16:00 +20°C° 0 mm 1 mps 693 mmHg 34%
    17:00 +18°C° 0 mm 2 mps 693 mmHg 41%
    18:00 +16°C° 0 mm 2 mps 693 mmHg 47%
    19:00 +14°C° 0 mm 1 mps 693 mmHg 52%
    20:00 +13°C° 0 mm 1 mps 693 mmHg 57%
    21:00 +11°C° 0 mm 1 mps 693 mmHg 62%
    22:00 +11°C° 0 mm 1 mps 693 mmHg 64%
    23:00 +11°C° 0 mm 1 mps 693 mmHg 67%

    22 April, Monday

    Time Temperature Precipitation Wind Pressure Humidity
    00:00 +10°C° 0 mm 1 mps 693 mmHg 69%
    01:00 +10°C° 0 mm 1 mps 693 mmHg 71%
    02:00 +9°C° 0 mm 1 mps 693 mmHg 72%
    03:00 +9°C° 0 mm 1 mps 693 mmHg 74%
    04:00 +9°C° 0 mm 1 mps 693 mmHg 73%
    05:00 +9°C° 0 mm 1 mps 693 mmHg 73%
    06:00 +9°C° 0 mm 1 mps 693 mmHg 72%
    07:00 +12°C° 0 mm 1 mps 694 mmHg 62%
    08:00 +15°C° 0 mm 1 mps 695 mmHg 53%
    09:00 +19°C° 0 mm 1 mps 695 mmHg 43%
    10:00 +20°C° 0 mm 1 mps 695 mmHg 39%
    11:00 +22°C° 0 mm 1 mps 696 mmHg 35%
    12:00 +23°C° 0 mm 2 mps 696 mmHg 32%
    13:00 +23°C° 0 mm 2 mps 695 mmHg 31%
    14:00 +24°C° 0 mm 2 mps 695 mmHg 31%
    15:00 +24°C° 0 mm 2 mps 695 mmHg 30%
    16:00 +21°C° 0 mm 2 mps 695 mmHg 36%
    17:00 +19°C° 0 mm 2 mps 695 mmHg 41%
    18:00 +18°C° 0 mm 2 mps 695 mmHg 47%
    19:00 +16°C° 0 mm 1 mps 695 mmHg 51%
    20:00 +15°C° 0 mm 1 mps 695 mmHg 55%
    21:00 +13°C° 0 mm 1 mps 696 mmHg 59%
    22:00 +13°C° 0 mm 1 mps 695 mmHg 62%
    23:00 +13°C° 0 mm 1 mps 695 mmHg 66%

    23 April, Tuesday

    Time Temperature Precipitation Wind Pressure Humidity
    00:00 +12°C° 0 mm 1 mps 695 mmHg 70%
    01:00 +12°C° 0 mm 1 mps 695 mmHg 74%
    02:00 +12°C° 0 mm 1 mps 695 mmHg 77%
    03:00 +12°C° 0 mm 1 mps 695 mmHg 81%
    04:00 +12°C° 0 mm 1 mps 695 mmHg 80%
    05:00 +12°C° 0 mm 1 mps 695 mmHg 79%
    06:00 +12°C° 0 mm 1 mps 695 mmHg 78%
    07:00 +15°C° 0 mm 1 mps 696 mmHg 65%
    08:00 +19°C° 0 mm 1 mps 697 mmHg 52%
    09:00 +22°C° 0 mm 1 mps 697 mmHg 39%
    10:00 +25°C° 0 mm 1 mps 698 mmHg 33%
    11:00 +27°C° 0 mm 1 mps 698 mmHg 28%
    12:00 +29°C° 0 mm 1 mps 698 mmHg 22%
    13:00 +29°C° 0 mm 1 mps 698 mmHg 22%
    14:00 +28°C° 0 mm 1 mps 697 mmHg 23%
    15:00 +28°C° 0 mm 2 mps 697 mmHg 23%
    16:00 +26°C° 0 mm 2 mps 697 mmHg 31%
    17:00 +24°C° 0 mm 2 mps 697 mmHg 39%
    18:00 +20°C° 0 mm 2 mps 696 mmHg 47%
    19:00 +20°C° 0 mm 1 mps 697 mmHg 53%
    20:00 +18°C° 0 mm 1 mps 697 mmHg 59%
    21:00 +16°C° 0 mm 1 mps 697 mmHg 65%
    22:00 +15°C° 0 mm 1 mps 697 mmHg 67%
    23:00 +15°C° 0 mm 1 mps 696 mmHg 69%
    Show more